Regional Weather Roundup
Issued by NWS

Home | Current Version | Previous Version | Text Only | Print | Product List | Glossary On
Versions: 1 2 3 4 5 6 7 8 9 10 11 12 13 14 15 16 17 18 19 20 21 22 23 24 25 26 27 28 29 30 31 32 33 34 35 36 37 38 39 40 41 42 43 44 45 46 47 48 49 50
000
ASUS43 KLOT 250006
RWRIL

ILLINOIS REGIONAL WEATHER ROUNDUP
NATIONAL WEATHER SERVICE CHICAGO/ROMEOVILLE IL
600 PM CST WED DEC 24 2014

NOTE: "FAIR" INDICATES FEW OR NO CLOUDS BELOW 12,000 FEET WITH NO
SIGNIFICANT WEATHER AND/OR OBSTRUCTIONS TO VISIBILITY.

* THESE STATIONS ARE NOT UNDER NWS QUALITY CONTROL. THEY ALSO MAY NOT
  REPORT WEATHER SUCH AS PRECIPITATION OR FOG.

ILZ001-002-007-009-015-016-024-250100-
NORTHWEST ILLINOIS

CITY           SKY/WX    TMP DP  RH WIND       PRES   REMARKS
MOLINE         CLOUDY    37  31  78 W15G24    29.64R WCI  28
6HR MIN TEMP:  36; 6HR MAX TEMP:  37;

STERLING*      CLOUDY    36  30  80 NW12      29.59R WCI  27
SAVANNA*       CLOUDY    37  32  84 NW7       29.60R WCI  31
$$

ILZ003-004-008-010-011-017-018-250100-
NORTH CENTRAL ILLINOIS

CITY           SKY/WX    TMP DP  RH WIND       PRES   REMARKS
ROCKFORD       FLURRIES  35  32  88 NW10      29.57R WCI  27
6HR MIN TEMP:  35; 6HR MAX TEMP:  37; 6HR PCP: TRACE;

FREEPORT*      CLOUDY    34  32  93 W10       29.58R WCI  26
ROCHELLE*      CLOUDY    34  33  96 W12       29.57R WCI  25
DE KALB*       CLOUDY    33  32  98 W14       29.55R WCI  23
PERU*          CLOUDY    36  34  94 W10       29.60R WCI  28
$$

ILZ005-006-012>014-019>023-250100-
NORTHEAST ILLINOIS

CITY           SKY/WX    TMP DP  RH WIND       PRES   REMARKS
CHICAGO-OHARE  CLOUDY    37  34  89 W12       29.51R WCI  29
6HR MIN TEMP:  37; 6HR MAX TEMP:  40;

CHICAGO-MIDWAY DRIZZLE   39  35  86 W13       29.52R WCI  31
6HR MIN TEMP:  39; 6HR MAX TEMP:  42; 6HR PCP:  0.03;

AURORA         CLOUDY    36  32  85 W13       29.55R WCI  27
6HR MIN TEMP:  36; 6HR MAX TEMP:  39; 6HR PCP:  0.01;

LANSING*       DRIZZLE   37  35  94 W10       29.54R WCI  29
JOLIET*        CLOUDY    36  33  90 W12G18    29.56R WCI  27
WAUKEGAN       CLOUDY    37  33  85 W10       29.49S WCI  30
6HR MIN TEMP:  37; 6HR MAX TEMP:  39;

DUPAGE AIRPORT CLOUDY    36  34  92 W15       29.53R WCI  27
6HR MIN TEMP:  36; 6HR MAX TEMP:  40; 6HR PCP: TRACE;

KANKAKEE*      CLOUDY    36  35  95 W12G18    29.57R WCI  28
WHEELING       CLOUDY    38  33  82 W10       29.53R WCI  31
6HR MIN TEMP:  38; 6HR MAX TEMP:  41; 6HR PCP: TRACE;

MORRIS*        DRIZZLE   35  35  98 W14       29.56R WCI  26
ROMEOVILLE*    CLOUDY    36  36 100 W12       29.55R FOG     WCI  27
NORTHERLY ISL    N/A     38  34  85 W14         N/A  WCI  30
$$

LMZ740>746-250100-
SOUTHERN LAKE MICHIGAN

STATION/POSITION SKY/WX   TEMP    WIND        PRES    VSBY  WAVE
                          AIR SEA DIR/SP/G                  HT/PER
                          (F)     (DEG/KT/KT) (MB)    (MI)  (FT/S)
WAUKEGAN HARBOR            38                   N/A
HARRISON CRIB              38     270/ 16/ 19   N/A
BURNHAM HARBOR             38     260/  5/ 13   N/A
CALUMET HARBOR             38     230/  5/  9  998.6R
MICHIGAN CITY              38     240/ 20/ 23   N/A
$$

ILZ025>027-034>036-040-047-049-050-058-095>099-250100-
WEST-CENTRAL ILLINOIS

CITY           SKY/WX    TMP DP  RH WIND       PRES   REMARKS
QUINCY         CLOUDY    37  31  78 NW15      29.73R WCI  28
GALESBURG*     CLOUDY    36  33  90 W13       29.66R WCI  27
MACOMB*        CLOUDY    36  33  89 W14       29.70R WCI  27
JACKSONVILLE*  CLOUDY    38  35  87 W14       29.71R WCI  30
PITTSFIELD*    CLOUDY    38  33  82 W12G18    29.73R WCI  30
$$

ILZ028>032-037-038-041>044-048-051>054-059>061-250100-
CENTRAL ILLINOIS

CITY           SKY/WX    TMP DP  RH WIND       PRES   REMARKS
PONTIAC        CLOUDY    37  35  94 W12       29.61R WCI  29
BLOOMINGTON    LGT RAIN  35  34  96 W13       29.63R WCI  26
DECATUR        CLOUDY    37  33  85 W13       29.67R WCI  29
PEORIA         CLOUDY    38  32  79 W9        29.65R WCI  31
6HR MIN TEMP:  37; 6HR MAX TEMP:  39; 6HR PCP: TRACE;

LACON*         CLOUDY    35  32  88 W7        29.62R WCI  29
LINCOLN*       CLOUDY    37  35  91 W7        29.66R WCI  32
SPRINGFIELD    CLOUDY    37  33  85 W13       29.69R WCI  29
6HR MIN TEMP:  37; 6HR MAX TEMP:  38; 6HR PCP: TRACE;

TAYLORVILLE    CLOUDY    36  32  87 W10       29.70R WCI  28
$$

ILZ033-039-045-046-055>057-062-063-250100-
EAST-CENTRAL ILLINOIS

CITY           SKY/WX    TMP DP  RH WIND       PRES   REMARKS
CHAMPAIGN      CLOUDY    37  34  89 W17       29.64R WCI  27
DANVILLE*      CLOUDY    36  34  94 W16G24    29.59R FOG     WCI  26
RANTOUL*       CLOUDY    38  36  93 W14       29.62R WCI  29
MATTOON        CLOUDY    37  34  89 W14       29.66R WCI  28
PARIS*         CLOUDY    37  36  96 W17       29.66R WCI  27
$$

ILZ079-100>102-250100-
SOUTHWEST ILLINOIS

CITY           SKY/WX    TMP DP  RH WIND       PRES   REMARKS
ALTON          CLOUDY    37  34  87 W9        29.75R WCI  31
BELLEVILLE     CLOUDY    38  35  88 W13       29.76R WCI  30
CAHOKIA*       CLOUDY    39  34  82 W10       29.77R WCI  32
SPARTA*        CLOUDY    37  34  87 W9        29.78R WCI  31
$$

ILZ064>066-069>071-074>076-080>082-084>086-088>090-092>094-250100-
SOUTH-CENTRAL ILLINOIS

CITY           SKY/WX    TMP DP  RH WIND       PRES   REMARKS
CARBONDALE     LGT RAIN  39  35  86 W8        29.79R WCI  33
6HR MIN TEMP:  39; 6HR MAX TEMP:  41; 6HR PCP:  0.01;

CAIRO*         CLOUDY    43  37  79 SW7       29.81R
EFFINGHAM*     CLOUDY    37  33  85 SW9       29.72R WCI  31
MT. VERNON     CLOUDY    37  32  81 W10       29.76R WCI  30
CENTRALIA*     CLOUDY    37  34  87 W12       29.75R WCI  30
SALEM*         MIX PCPN  39  36  87 W14       29.74R WCI  31
METROPOLIS*    CLOUDY    41  38  90 SW5       29.79R
$$

ILZ067-068-072-073-078-083-087-091-250100-
SOUTHEAST ILLINOIS

CITY           SKY/WX    TMP DP  RH WIND       PRES   REMARKS
LAWRENCEVILLE  CLOUDY    40  37  89 SW13      29.71R
FLORA*         MOCLDY    38  35  90 W10       29.74R WCI  30
FAIRFIELD*     DRIZZLE   39  36  90 W6        29.74R WCI  34
HARRISBURG*    CLOUDY    39  38  93 W7        29.79R WCI  34
ROBINSON*      CLOUDY    39  36  91 W17       29.71R WCI  29
CARMI*         CLOUDY    42  39  91 W13       29.75R
$$

ABBREVIATIONS USED IN REMARKS
   TC - TEMPERATURE IN CELSIUS
  WCI - WIND CHILL INDEX
   HX - HEAT INDEX
  VSB - VISIBILITY
$$



USA.gov is the U.S. government's official web portal to all federal, state and local government web resources and services.